Miscellaneous Local Product
Issued by NWS Hastings, NE

Home | Current Version | Previous Version | Text Only | Print | Product List | Glossary On
Versions: 1 2 3 4 5 6 7 8 9 10 11 12 13 14 15 16 17 18 19 20 21 22 23 24 25 26 27 28 29 30 31 32 33 34 35 36 37 38 39 40 41 42 43 44 45 46 47 48 49 50
232
AXUS43 KGID 280102
MISGRI

GID CWA HOURLY WEATHER ROUNDUP
NATIONAL WEATHER SERVICE HASTINGS NE
700 PM CST MON FEB 27 2017

NOTE: "FAIR" INDICATES FEW OR NO CLOUDS BELOW 12,000 FEET WITH NO
SIGNIFICANT WEATHER AND/OR OBSTRUCTIONS TO VISIBILITY.

...SOUTH CENTRAL NEBRASKA...

CITY           SKY/WX    TMP DP  RH WIND       PRES   REMARKS
GRAND ISLAND   CLEAR     48  39  71 S10       29.68S
HASTINGS       PTCLDY    48  38  68 SE8       29.68S
KEARNEY        CLOUDY    45  25  45 S6        29.67R
ORD            CLEAR     46  33  60 SE3       29.65S
YORK           CLEAR     46  39  76 SE12      29.70S
AURORA         CLEAR     46  39  76 SE8       29.69S
LEXINGTON      CLEAR     44  25  47 SE5       29.64S
HOLDREGE       CLOUDY    46  20  36 SE5       29.65S
HEBRON         PTCLDY    48  39  72 S5        29.70R

...NEBRASKA PANHANDLE...

CITY           SKY/WX    TMP DP  RH WIND       PRES   REMARKS
CHADRON        LGT SNOW  32  27  81 SW5       29.65R WCI  27
ALLIANCE       CLOUDY    32  23  69 N21       29.60R WCI  20
SCOTTSBLUFF    CLEAR     33  26  75 NW12      29.62R WCI  24
SIDNEY         CLOUDY    41  20  43 S6        29.52S

...WESTERN AND NORTH CENTRAL NEBRASKA...

CITY           SKY/WX    TMP DP  RH WIND       PRES   REMARKS
VALENTINE      CLOUDY    38  29  70 N5        29.63R WCI  34
AINSWORTH      CLEAR     36  32  84 E6        29.63S WCI  31
ONEILL         CLEAR     41  32  72 SE5       29.67S
BROKEN BOW     CLEAR     37  30  75 CALM      29.64R
IMPERIAL       CLEAR     44  21  40 E12       29.54F
NORTH PLATTE   CLEAR     37  21  52 E8        29.60F WCI  31
MCCOOK         CLOUDY    47  21  35 E10       29.59F

...EASTERN NEBRASKA...

CITY           SKY/WX    TMP DP  RH WIND       PRES   REMARKS
NORFOLK        CLOUDY    43  30  60 SE8       29.70F
SO SIOUX CITY  CLOUDY    41  32  70 E8        29.75S
TEKAMAH        CLEAR     41  31  67 SE13      29.74F
COLUMBUS       CLEAR     45  36  70 SE6       29.72S
ALBION         CLEAR     41  33  74 SE6       29.69S
OMAHA EPPLEY   PTCLDY    46  28  49 SE8       29.75F
OFFUTT AFB     LGT RAIN  47  33  57 SE7       29.75F
MILLARD        CLEAR     50  32  49 E5        29.74F
LINCOLN        CLOUDY    49  35  58 SE6       29.74S
NEBRASKA CITY  CLOUDY    52  30  43 SE6       29.74F
BEATRICE       PTCLDY    53  39  59 SE7       29.72R
FALLS CITY     PTCLDY    55  34  45 SE14      29.73F

...NORTHERN KANSAS...

CITY           SKY/WX    TMP DP  RH WIND       PRES   REMARKS
GOODLAND       CLOUDY    47  12  24 S15       29.56S
HILL CITY      CLOUDY    51  15  23 S5        29.63S
NORTON         CLEAR     48  12  23 E3        29.61
PHILLIPSBURG   CLEAR     48  18  29 E6        29.64S
SMITH CENTER   CLEAR     46  34  61 E9        29.67S
RUSSELL        CLOUDY    54  40  59 SE13      29.65F
CONCORDIA      CLOUDY    50  38  63 S6        29.69R
SALINA         CLOUDY    56  44  64 SE9       29.70F
TOPEKA         CLOUDY    59  48  67 S7        29.76S



USA.gov is the U.S. government's official web portal to all federal, state and local government web resources and services.